TIMESTAMP,CO2_1_1_1,H2O_1_1_1,TAU_1_1_1,TAU_SSITC_TEST_1_1_1,H_1_1_1,H_SSITC_TEST_1_1_1,LE_1_1_1,LE_SSITC_TEST_1_1_1,FC_1_1_1,FC_SSITC_TEST_1_1_1,WD_0_0_1,WS_0_0_1,WS_MAX_0_0_1,U_SIGMA_0_0_1,V_SIGMA_0_0_1,W_SIGMA_0_0_1,USTAR_0_0_1,MO_LENGTH_0_0_1,ZL_0_0_1,FETCH_MAX_0_0_1,FETCH_70_0_0_1,FETCH_80_0_0_1,FETCH_90_0_0_1,PA_0_0_1,RH_0_0_1,TA_0_0_1,VPD_0_0_1,T_SONIC_0_0_1,T_SONIC_SIGMA_0_0_1
[yyyymmddHHMMSS],[mmolCO2 mol-1],[mmolH2O mol-1],[kg m-1 s-2],[#],[W m-2],[#],[W m-2],[#],[umolCO2 m-2 s-1],[#],[Decimal degrees],[m s-1],[m s-1],[m s-1],[m s-1],[m s-1],[m s-1],[m],[#],[m],[m],[m],[m],[kPa],[%],[deg C],[hPa],[deg C],[deg C]
20220314003000,419.82328883734692,3.5594254094052533,0.11014129763156814,0,-10.169153523102420,0,2.4439916067985785,0,0.22038829094686746,0,318.84483251033231,2.3088195149947968,4.6648351134732753,0.73504712808910388,0.53550977401561650,0.35657188742515322,0.30214719288957920,225.19740022957879,8.4370423373583983E-002,109.67611819915058,200.52292347186221,239.97472512655381,300.41987942163740,93.492061001269306,70.914827586206897,-3.5410344827586187,1.3652296153409862,-3.8694600284129592,0.17634558745542797
20220314010000,419.98109606604100,3.4656310511034785,7.7656538337983125E-002,0,-13.916566912804697,0,0.30188264046586838,2,0.29006358682663197,1,317.88446060628848,1.8701744315673923,4.4737491492448624,0.59166977275864541,0.49590343237960816,0.33742284034490055,0.25339299885597838,97.097636917937791,0.19567932447272510,99.575158727175221,182.05514802129943,217.87351464789447,272.75178652739794,93.544368869791668,71.761333333333340,-4.0480000000000018,1.2760571997123002,-4.4005055016411916,0.13738177645094335
20220314013000,420.16912953806371,3.3933128889327464,4.5924047013396835E-002,0,-7.0093992217028092,0,0.23408395539300964,1,9.7983454225417710E-002,0,325.90469308681128,1.6694552109889864,3.7158667579827589,0.53864728343015178,0.38271892915133826,0.22795998758056379,0.19464627068869819,87.405497003247248,0.21737763243076258,105.81067563919868,914.00000000000000,1646.0000000000000,4293.0000000000000,93.584080816623256,72.838333333333338,-4.5203333333333262,1.1845101332508734,-4.8490830247667418,0.20544631232149815
20220314020000,420.80835080742321,3.3637180404698901,4.0825120836544687E-003,0,-1.1946573068399595,0,-8.6552683964283922E-002,0,3.7481986735305249E-002,0,359.77900924923199,0.95924308206158015,1.8531141183529642,0.25127695034755826,0.24749209966474917,9.9665252131264842E-002,5.7927582434790910E-002,13.523470363557522,1.4049648122275182,384.43713109232658,3657.0000000000000,6765.0000000000000,-9999.,93.644411596571189,76.862666666666669,-5.3380000000000223,0.94845293436536793,-5.6628535775078035,0.21935183617684631
20220314023000,420.75763329382625,3.3600176799687356,3.3237634133057741E-003,1,-2.2806015526461318,1,-0.14339063282453204,1,-7.8204526225543664E-004,2,22.848448878548879,1.3638753404484674,1.9802608835717452,0.25095660963047922,0.14896605144141889,5.3127551232783357E-002,5.2205879623589163E-002,5.1870014779738032,3.6630026192747422,950.96208528100738,8341.0000000000000,-9999.,-9999.,93.685137381727429,79.917000000000002,-5.8586666666666929,0.79125807574783891,-6.0814736540052650,0.13733754158223183
20220314030000,420.65411906025150,3.3191683124250018,6.0813662905542000E-003,1,-0.49129070196915853,2,0.27102418910424786,2,6.0206063395501531E-002,1,29.542560373522122,1.5666530405658152,2.1743350851278214,0.16271213015818686,0.20226654584848311,7.7223173518942215E-002,7.0534829293342330E-002,59.402214715790677,0.31985339420264575,441.78515603019412,4642.0000000000000,8834.0000000000000,-9999.,93.723754672743055,82.070000000000007,-6.3609999999999900,0.67981585576655501,-6.6039123925102672,9.7803037735800305E-002
20220314033000,420.64373487507504,3.2956936646523536,4.2631646398365993E-003,1,-4.9844394679249264,1,-0.43879768676364128,1,8.4940803338936846E-002,1,25.192825480763133,1.7063090832939694,2.2614019829508631,0.16043267845478867,0.22035532072033562,4.9506745078484092E-002,5.9015028982909896E-002,3.4302659280652228,5.5389291671379528,1122.9877988417077,9158.0000000000000,-9999.,-9999.,93.762649347439236,83.186666666666667,-6.6243333333333112,0.62473133204743592,-6.9013713311089191,0.26898032071781097
20220314040000,420.71048975638541,3.2033136901356665,1.1724855752047259E-003,1,-0.41724569527999017,2,0.25223097083072415,1,5.7234642959712395E-002,1,56.267284134295195,1.9169965705205672,2.8452913746598725,0.21601420525828652,0.20289014986433268,9.2757775124514552E-002,3.0904415343970582E-002,5.8864057585580687,3.2277761301752719,4391.2300763948169,-9999.,-9999.,-9999.,93.802960627604165,85.030000000000001,-7.2726666666666802,0.52915403998270050,-7.6148752382065368,0.16432945518968822
20220314043000,420.69140599233469,3.0587219480974714,6.3096890179133933E-003,0,-3.2541106430183024,1,-0.42382089552048552,1,5.7985610764698436E-002,1,66.173180410407014,1.9195584428359129,2.6440964313012780,0.20268758974552423,0.33859526655861183,0.12903317514532231,7.1611034694178455E-002,9.3918430221983744,2.0230321093625583,958.12903578639248,9735.0000000000000,-9999.,-9999.,93.825618908559804,84.556666666666672,-7.7943333333333271,0.52428943687084595,-8.1430850795683227,0.22710604956930569
20220314050000,420.90092080932891,3.0676141840162199,5.3674238525863234E-002,1,-5.7418439452137369,2,-0.27160367794783774,2,4.3657304460333432E-002,2,79.933507730129932,2.1051359800907719,3.6118229842571901,0.35273305447615000,0.56069287066833107,0.23503312773349183,0.20875155021925137,131.85672281228290,0.14409580031083621,113.88208327488826,208.21276905407032,249.17750627449064,311.94066937711671,93.832168981553835,86.553333333333327,-8.0566666666666720,0.44730094220229605,-8.4215183927747148,0.27308144044805155
20220314053000,420.97209042423577,3.0563337889226325,0.12873306646376997,0,-25.603959430140733,0,-2.3178504240273141,0,0.62883468430880096,0,107.01280642235047,2.4265787183040186,4.8775866608672116,0.62347171761103248,0.59193407974771983,0.41138906380305151,0.32311023737327255,109.67132042318713,0.17324492790535370,103.21273360670386,188.70579504608207,225.83264053760803,282.71566767708327,93.857933861777042,87.750000000000000,-8.2769999999999868,0.40056888839281896,-8.6667487662820690,0.21450319109880139
20220314060000,420.86413060944551,3.1289362160278342,0.13675919242123369,0,-27.770673193329202,0,-2.6662832380931896,1,0.26581481423830400,0,123.86148572150574,2.4427442053578692,5.0493338264923722,0.66173180177968760,0.52673353096010511,0.37326811304548524,0.33311329774669807,110.84160639052969,0.17141577624792850,114.31724844993636,209.00838978287237,250.12966108249719,313.13265420994111,93.906147483400929,88.076666666666668,-8.0163333333333071,0.39787259696282773,-8.3975172429233567,0.17116624822386931
20220314063000,421.12244886595317,3.1783633614527038,0.15892617727933384,1,-33.507068032953931,0,-0.88454636167300982,1,9.1833714134695502E-002,2,128.49117933694168,2.3871727889457501,4.3458891872142136,0.63055008382625988,0.48550399709630027,0.39623100958316099,0.35914677440167608,115.16425713588426,0.16498174409775057,115.74805639371577,211.62436303688960,253.26031293866413,317.05185883719844,93.942746566189243,88.313333333333333,-7.8439999999999941,0.39522795764263835,-8.2176185201008707,0.16981792228902864
20220314070000,421.58329903707590,3.2555373202774169,8.7020903807121880E-002,0,-24.287634303944991,0,-1.2189477892609515,0,-4.9843655732702059E-002,2,131.58378375743615,2.4297667015969546,4.7128925723572079,0.56652730033091481,0.46388481927413738,0.32921541085131456,0.26582829194363561,64.436399355777013,0.29486439636538386,105.52411901272522,192.93174474685466,230.89002300681906,289.04691039769995,93.963518425564246,89.143333333333331,-7.6523333333333312,0.37265423594593589,-7.9989280641343612,0.18222525473007656
20220314073000,421.91130081480287,3.3375701832370916,0.17203107247650254,0,-53.250103498340557,0,-4.6381419901763170,1,-0.22974598467038371,1,138.48573748173618,2.5093341127351594,5.0234546293212832,0.70765521271343157,0.56013461467505321,0.42125380093549886,0.37394708546214067,81.822185959129186,0.23221085793883148,113.83294086591849,208.12292105730612,249.06998116986244,311.80606070551528,93.976048488984276,89.353333333333339,-7.3593333333333248,0.37382381437440187,-7.6835567902741673,0.26772784616566009
20220314080000,422.24198508910905,3.3879584773960265,0.11214714275041336,0,-31.968331400800249,0,-0.98302745696556415,0,-1.1697697455396580E-002,0,139.66949622121402,2.4521953537192092,4.7269950748717653,0.61787463370444906,0.49436433026275983,0.37493128443520579,0.30209490463656613,71.850849426452228,0.26443667892122458,105.34362921198490,192.60175182683184,230.49510576291956,288.55252087092271,93.962737576605903,88.926666666666662,-7.1050000000000182,0.39651222296857896,-7.4231042785644377,0.20001511823022858
20220314083000,422.57521027720577,3.3936936895621654,9.2387001758189730E-002,0,-31.449885963223416,0,-1.4452543576448376,0,-5.8428718703813956E-002,1,144.36999517409760,2.2847238276809319,5.1543293158025127,0.59964826773111168,0.48535280540696879,0.36164228838848778,0.27419580573670421,54.608893715442697,0.34792867438416980,100.34140519955162,183.45609095458155,219.55008553321545,274.85065432668114,93.956073886501756,89.153333333333336,-7.1170000000000186,0.38803659877904412,-7.4463973753187247,0.20882444487135332
20220314090000,422.65344563152212,3.3724431600854090,3.9867217523219360E-002,0,-23.452859286065252,0,-1.9636957848053125,0,0.11976715736484277,1,133.42449383928403,2.1615129757081570,3.6143613923853133,0.42012124824558517,0.35539337657162684,0.23155078806126875,0.18010848443772096,20.749924102894095,0.91566599982647534,206.37914499741134,1922.0000000000000,3533.0000000000000,9567.0000000000000,93.929317902491590,89.319999999999993,-7.2263333333333435,0.37886529518570228,-7.5414534921200129,0.24884297713745276
20220314093000,422.59204890902902,3.4038226174603707,5.3615083336422432E-002,0,-11.902082449900435,1,-0.37105650197122952,2,-0.10933444904214305,2,140.74799718840572,2.0560632826263330,3.8084039661630000,0.46813462084606017,0.41424049788562567,0.26538371141040945,0.20890886340788628,63.807969662456436,0.29776844648889195,103.40010554469350,189.04837070794170,226.24261610980915,283.22890844400786,93.933812138671868,89.349999999999994,-7.1100000000000136,0.38120658818589620,-7.3171463936699297,0.52654081022022003
20220314100000,422.39395386321002,3.4527767053958622,0.10396331941311095,1,-47.045975993622577,0,-5.9825541098347426,0,0.29741140584923453,0,137.90767988358510,2.4546122749952182,4.1635228314213073,0.53811592996183788,0.41760292975011376,0.35351295573556374,0.29122563719644196,43.733252481950117,0.43445202269924488,107.22950851121746,196.04974065618219,234.62146776301719,293.71823644311729,93.937544636935769,86.620000000000005,-6.5203333333333262,0.50114351017278580,-6.8308504045273821,0.36659291737952154
20220314103000,422.45795244476398,3.4909971130912476,0.12263785188654566,0,-37.293789345812208,0,-2.0353803700413398,0,0.31571660550634889,0,145.10911063213342,2.4253270534487368,5.1610713749048935,0.67321229559160212,0.50560332505697991,0.40301004145686420,0.31633207356238380,70.712771833881860,0.26869262096859559,103.16129578299143,188.61175029908327,225.72009299481400,282.57477150888241,93.954566375434041,86.956666666666663,-6.4250000000000114,0.49211836354684241,-6.7562952541774735,0.19766913064448097
20220314110000,422.48147910076182,3.4953497812477430,7.7607536029783819E-002,0,-21.397240761989924,0,-1.6637329076401715,0,0.21392059367676317,0,139.56174037458507,2.1187130340805238,4.6177420491759449,0.57686957022218022,0.42474232238237181,0.32553197158047531,0.25162692972109835,62.039454667340209,0.30625672166009998,101.90269639593218,186.31062920985266,222.96623876553176,279.12727279805171,93.969520940104161,87.010000000000005,-6.4146666666666761,0.49049447163516902,-6.7781320504082601,0.18241152669868477
20220314113000,422.56609688787137,3.4832296351948306,9.5460334873985697E-002,1,-26.102520303317831,0,-2.5068037862948800,0,0.32357941908676852,0,136.71938826745964,2.2682064061066884,4.2339529800276567,0.54032797441155811,0.44722768416248387,0.33223435389706585,0.27902504149143881,69.340637077640437,0.27400959669184716,108.89647325438987,199.09748385783797,238.26883797092410,298.28431113072287,93.965763372395827,87.370000000000005,-6.5143333333333544,0.47327029546982374,-6.8958402336968447,0.17536016918365760
20220314120000,422.53958611373520,3.4968554981844671,4.6062880127500927E-002,0,-14.693140158328514,0,-0.66189277241741906,0,0.28558390162768471,1,138.24870359719205,1.9135707295816458,3.5647225340576294,0.45314736678501638,0.33017293542531034,0.25572231110327831,0.19383043974021810,41.296018482157592,0.46009278129825426,138.87031736679759,1292.0000000000000,2375.0000000000000,6427.0000000000000,93.970327710434375,87.516666666666666,-6.4846666666666692,0.46884005289538155,-6.8581374007144973,0.15235740726698352
20220314123000,422.65073594199930,3.5165173250256552,8.6683603530142317E-002,0,-18.613234117411398,0,-0.88405497349893969,0,9.1367031239754176E-002,1,145.00889790751518,2.1195693986494830,3.9047139430423132,0.55392796637723751,0.44245100203782695,0.32360104334139267,0.26593235920976466,84.212933334882067,0.22561855106559930,107.01974661898068,195.66622901704915,234.16250228121427,293.14366612272539,94.009153695746534,86.856666666666669,-6.3073333333333039,0.50038207971244386,-6.6802771623399053,0.15501117414422402
20220314130000,422.90539690906394,3.4946578961497039,6.2172595889020993E-002,0,-13.146313114837993,0,-0.10754329325189065,1,8.0841298825326230E-002,0,145.66531139049073,1.7095820478019037,3.6744102330878241,0.59319309968781064,0.37421118155397015,0.30028851352329033,0.22515434340935381,72.384284443127171,0.26248791635052260,99.450778501592225,181.82774129989537,217.60136688286090,272.41108981980454,94.046114981336814,86.633333333333326,-6.3500000000000227,0.50722435631079232,-6.7492935833400907,9.2448830335053300E-002
20220314133000,423.14473789824740,3.5125534833172067,9.1500992947937468E-003,1,-1.4730019867031168,0,2.7045277496098336E-002,2,2.9471354442457381E-002,1,158.94628502199086,0.66246024697093664,1.8709733312361203,0.26901821908995860,0.25958109456184425,0.12770599451896150,8.6379534888587170E-002,36.485016352838102,0.52076172355948591,89.034073401163496,779.00000000000000,1408.0000000000000,3695.0000000000000,94.069294018446172,86.533333333333331,-6.2649999999999864,0.51435620886537781,-6.6617905502318990,7.7369025530007379E-002
20220314140000,422.83288681170666,3.5968953939174888,1.1014883166949201E-002,1,4.0396707315793163,2,0.15624325755393376,1,-7.4973672630553656E-002,2,222.73187461535790,0.82464726687773449,1.9885928513253406,0.31391545920555486,0.27704091489862492,0.11624384160193946,9.4877963132119436E-002,-17.634176824032739,-1.0774531859125882,79.048753324816374,246.00000000000000,337.00000000000000,551.00000000000000,94.102972108940975,84.193333333333328,-5.5903333333333194,0.63563853484912269,-5.9109093704224165,0.42503653694859334
20220314143000,422.68501133422120,3.6530651804039835,1.8917169511742469E-002,1,-3.8443389511748141,1,0.47018343312489275,1,0.18236063541466588,1,255.30754688163452,1.0098756282111021,2.0764921635894775,0.30991674945388076,0.27295601707329537,0.13824642093125281,0.12451098904550660,41.889917412547518,0.45356976507928909,98.484440894004607,877.00000000000000,1592.0000000000000,4215.0000000000000,94.131919664684958,80.361999999999995,-4.7679999999999723,0.84053796661316427,-5.1362240891891133,0.23424628524857505
20220314150000,422.30516059417363,3.6784832411213704,4.9900508847507116E-002,0,-2.2040599903460154,2,8.4047184565267088,0,0.99025248185355341,0,281.90358546098440,1.3657930600991803,3.2372830297722195,0.54222960464135939,0.37974837915065424,0.28169530343539856,0.20248452064752978,314.31242368745791,6.0449408194227103E-002,96.148979122897771,175.79099898074099,210.37692813233474,263.36694978723443,94.161036052083332,76.364333333333335,-3.9946666666666601,1.0723431484046102,-4.4332134433322494,0.18653112456432067
20220314153000,422.46852089127054,3.5621326870657928,0.23029677748601030,1,9.5145372952764866,2,7.1055963929599155,2,5.0515980522473756,1,297.65350797964572,1.4787599859571545,3.7642553215619157,0.67078145478118689,0.56693372254070895,0.48021087560796993,0.43510658722709122,-722.64227002632629,-2.6292400525238884E-002,115.71398045968152,211.56206136151326,253.18575374530855,316.95851957463299,94.197910200086810,72.566999999999993,-3.7379999999999995,1.2688257217667809,-4.2548325848049444,0.14868284771460222
20220314160000,421.96414282138687,3.3257658404140202,0.20710464845898188,0,40.190816404629878,0,10.099009594052518,0,1.9436487635769301E-002,2,320.77504089538468,1.8029353171500924,4.5421002435259661,0.87586470702269881,0.59035257504113936,0.40919739570818608,0.41225242053693106,-145.53703810081839,-0.13055095972777778,125.96189406315685,230.29851583307436,275.60850439052336,345.02914260205574,94.229747157769111,69.632666666666665,-4.0983333333333576,1.3670670086718468,-4.6634940388996711,0.15950899297848872
20220314163000,421.11448175575316,3.2084151870273936,9.8767909382452529E-002,1,44.076774988162626,0,7.5460140960003255,0,3.9887002305212971E-002,2,327.89612951269686,1.1963025348174683,2.9945132905351000,0.53895976986630267,0.38885362236574422,0.34389521959615749,0.28466694282234872,-43.695978150976416,-0.43482262679535488,107.64246104923748,196.80474960013973,235.52502063695943,294.84937742180847,94.241164180404041,67.203999999999994,-4.1023333333333198,1.4759560979911033,-4.6272222471210398,0.18294227852233405
20220314170000,420.93458696634264,3.2131414251027577,6.5105713184934258E-002,1,42.850776561173411,0,6.6741076108267823,0,3.5676649715258080E-002,2,312.56271084822799,0.99522978836678189,2.5889755618968602,0.48976894382997699,0.41329696274840211,0.32998303955520136,0.23121366536992313,-24.086770913215407,-0.78881474268414664,94.204663744684652,172.23617036178268,206.12270619133943,258.04116874144847,94.257881415581593,65.993666666666670,-3.8383333333333098,1.5610670008798622,-4.4159586622449751,0.17613058895966346
20220314173000,420.65813881494682,3.2787416430648411,3.2031577661936608E-002,1,76.191580349565797,0,13.000905273217807,0,0.60788279701616166,1,32.726656101856889,0.32510395311366302,1.8052539436384822,0.35669985462766063,0.37024462738704994,0.34611749414312032,0.16238702158285989,-4.6930065363502100,-4.0485773571447989,5.1750668781204601,18.000000000000000,25.000000000000000,43.000000000000000,94.257712764322903,63.972999999999999,-3.1523333333333312,1.7408925036597935,-3.7441433325872140,0.37158783473299667
20220314180000,420.44185897339582,3.2486794439027507,2.0577761648296024E-002,1,152.31158801396967,1,10.515106419212188,1,-1.1808928984753688,2,14.050328560626241,0.90716027110672814,3.3586769993355148,0.48316236082779257,0.51457484775108386,0.43951267826276580,0.13033447391728856,-1.2135627954091996,-15.656379770272551,20.544631671609327,60.000000000000000,81.000000000000000,129.00000000000000,94.230874324218746,60.285333333333334,-2.4816666666666833,2.0172318456188920,-3.2906905153062098,0.43807142319631942
20220314183000,420.17322008128821,3.1539200665628346,0.31217500810831594,1,296.37728675352730,1,18.736564953047118,1,-1.6473770257268483,2,340.25118603831106,1.2349833423434553,4.4764909471019978,0.84563524310964422,0.63238237408685127,0.57688067317364844,0.50831321096977589,-36.994161077819726,-0.51359456320775088,113.15955371827515,206.89175458559862,247.59658934753301,309.96154898299278,94.221577160917192,55.581333333333333,-1.7846666666666806,2.3754948233569184,-2.6923595497561905,0.56355606790123469
20220314190000,421.28195372017120,3.3486620839137071,0.22373622909291474,1,217.24699412654437,0,22.344170975282264,1,0.35396084616795193,2,357.10672310009636,1.7543416276032020,5.0831109849787977,0.72455823443176448,0.64266582363209701,0.53789960108646206,0.43054425945051045,-30.667504094491147,-0.61954829912007747,104.78718279240056,191.58439030234851,229.27758385587197,287.02832791970440,94.215558367763208,57.999666666666670,-1.5503333333333558,2.2852707969508179,-2.4612746820961320,0.52332016516696922
20220314193000,420.88993787163719,3.3787656014940528,0.29563132850212992,1,235.94115519442286,0,38.095874849001206,1,0.16469587839545829,2,58.784253276800754,0.85318472495203246,4.2667881965262451,0.90351597827099783,1.0872051063253338,0.60301392552716560,0.49565477702528254,-43.076302841482999,-0.44107777935163855,107.03762483773161,195.69891610289125,234.20162037456910,293.19263733368376,94.191006188151050,55.391333333333336,-0.80466666666666242,2.5636657592209384,-1.8317933875189283,0.59773903506023651
20220314200000,420.02416947207092,3.2025572771595270,0.11647151290326330,1,123.62439318937514,0,40.048701672086771,1,1.4334027131723626,1,359.48977870305504,1.2049746077351069,3.9828434679824580,0.68130323040607821,0.78317141033379423,0.45637345713124233,0.31166380376477509,-20.436365513577620,-0.92971521709066518,92.288522051586568,168.73285222475067,201.93012914124921,252.79255978402679,94.176159428955657,48.999666666666670,0.14100000000001955,3.1400332701137477,-0.80930660810321342,0.41542247415666078
20220314203000,419.93957986990404,3.1262526450968751,0.21877882401553395,1,267.93662436526876,0,68.243956066231959,1,1.0264936992194462,1,292.93519805869403,1.2522710770638523,3.8180392741537981,0.75743901426426352,0.70744450409249471,0.56666325748866364,0.42779290879326670,-24.384892977399360,-0.77917094069716697,99.995791373579266,182.82419865282785,218.79387183556202,273.90396451280083,94.177260059244787,45.026666666666664,0.97699999999997544,3.5955793439051962,-7.0637056138821208E-002,0.53867788176996434
20220314210000,419.38863258524361,2.9474678126913028,9.2497646369359240E-002,1,141.89244496019771,0,2.8779474416684834,2,-0.93228144107454813,2,329.71859298035923,1.3052674619188323,4.8481735017624175,0.77732805487897272,0.79405674612218669,0.46493660518656255,0.27826896892931252,-12.673177154087316,-1.4992294172951077,83.044663699608193,151.83213097992410,181.70428231562738,227.47219964464369,94.179995865451389,41.727666666666664,1.2163333333333526,3.8775957027819947,0.29614565022791339,0.40156108552160946
20220314213000,419.14133615668322,2.8710554326237214,0.18281942508296301,1,202.44974241103458,1,19.192302184816143,0,0.34229832895507895,0,331.86719992670078,1.1739733227428835,4.8444036770124050,0.97038333578600722,0.55055088513415584,0.53266342016117230,0.39154875301706654,-24.747123019824475,-0.76776601404451916,97.886156736000331,178.96711370187535,214.17792626251401,268.12534840337258,94.190912649305560,39.177333333333330,1.7306666666666501,4.1995005967046106,0.72034942118335721,0.49775379036100625
20220314220000,419.25112955811875,2.8378064060751220,0.19114247762923509,1,141.77156702447621,0,17.988470970857751,0,-5.3983905954549917E-002,2,267.14298821481196,0.89093262803204853,4.2873784621095812,0.86401173251874219,0.75021233095694384,0.55792917792944463,0.40054460376192108,-37.834173622424260,-0.50219148935603364,96.053312945549862,175.61609069738665,210.16760758935851,263.10490530630744,94.202078372612846,37.942999999999998,2.0169999999999959,4.3733963656973280,1.0723160222372030,0.32223677399011069
20220314223000,419.53874315751017,2.8393584574700541,0.15778149812928191,1,42.209529600157666,0,8.4158701431663001,0,0.44659009099474639,1,313.24385705273306,1.2361492037075998,3.2783536461237124,0.65092101133452385,0.67874956355304217,0.40440315897166645,0.36373569010285439,-95.182587604537247,-0.19961634242326790,115.03553100261487,210.32163937363919,251.70128543401950,315.10014140231709,94.229623534695008,38.497999999999998,1.8256666666666774,4.2753850076677979,1.1765822971702846,0.15874154390358089